Content
SEND FEEDBACK

Daily
Averages
Monthly
Summary
United States of America

CASTLE ROCK, COLORADO


Home > North America > United States > Colorado
Elevation: 6239 feet     Latitude: 39 22N     Longitude: 104 52W

WEATHER
 
SELECT A DAY
Number of Records: 307,432;   Date Range: 8/29/01 - 10/22/14
 
SHARE

PRINT THIS DATA

[ ← Previous Day ]
WEATHER ALMANAC - FEBRUARY 5, 2013
[ Next Day → ]
[ °C ]   °F
Weather ElementAverageHighLow
Temperature36.2 °F51.8 °F (12:35 pm)23 °F (5:15 am)
Dewpoint12.3 °F15.8 °F (9:35 pm)8.6 °F (12:55 pm)
Humidity40.3 %63 % (5:15 am)19 % (12:35 pm)
Barometer29.97 in30.06 in (9:15 am)29.89 in (11:35 pm)
Wind Speed11.4 mph21.9 mph (8:15 pm)
Wind Gust25.3 mph (3:35 pm)
Weather ElementAverage
Visibility10 mi
Wind DirectionSSW (186.6 °)

Weather ElementTotal
Precipitation---
Heating Degree Days27.6 (Base 65)
Averaged from 70 records on February 5, 2013
WEATHER CONDITIONS BREAKOUT
WIND DIRECTION BREAKOUT
WEATHER BY HOUR - FEBRUARY 5, 2013
[ °C ]   °F
Local TimeTemperatureDewpointHumidityBarometerVisibilityWind DirectionWind SpeedGust SpeedPrecipitationEventsConditions
12:35 AM26.6 °F12.2 °F55 %29.94 in10.0 miSouth (180°)4.6 mphClear
12:55 AM26.6 °F12.2 °F55 %29.94 in10.0 miSSW (210°)5.8 mphClear
1:15 AM28.4 °F12.2 °F51 %29.94 in10.0 miSW (220°)6.9 mphClear
1:35 AM26.6 °F12.2 °F55 %29.95 in10.0 miSW (230°)6.9 mphClear
1:55 AM30.2 °F12.2 °F47 %29.95 in10.0 miSSW (210°)6.9 mphClear
2:15 AM26.6 °F12.2 °F55 %29.95 in10.0 miSW (230°)6.9 mphClear
2:35 AM26.6 °F12.2 °F55 %29.95 in10.0 miSW (220°)5.8 mphClear
2:55 AM26.6 °F12.2 °F55 %29.95 in10.0 miSSW (210°)6.9 mphClear
3:15 AM26.6 °F12.2 °F55 %29.96 in10.0 miSW (220°)5.8 mphClear
3:35 AM24.8 °F12.2 °F59 %29.96 in10.0 miSW (230°)6.9 mphClear
3:55 AM24.8 °F12.2 °F59 %29.97 in10.0 miSSW (210°)8.1 mphClear
4:15 AM26.6 °F12.2 °F55 %29.97 in10.0 miSW (220°)8.1 mphClear
4:35 AM24.8 °F12.2 °F59 %29.97 in10.0 miSW (220°)8.1 mphClear
4:55 AM24.8 °F12.2 °F59 %29.98 in10.0 miSW (230°)8.1 mphClear
5:15 AM23.0 °F12.2 °F63 %29.99 in10.0 miSW (220°)8.1 mphClear
5:34 AM23.0 °F12.2 °F63 %29.99 in10.0 miSW (220°)8.1 mphClear
5:55 AM26.6 °F12.2 °F55 %29.99 in10.0 miSSW (210°)8.1 mphClear
6:15 AM24.8 °F10.4 °F54 %30.00 in10.0 miSW (230°)8.1 mphClear
6:34 AM23.0 °F10.4 °F59 %30.00 in10.0 miSSW (210°)8.1 mphClear
6:54 AM24.8 °F12.2 °F59 %30.01 in10.0 miSSW (200°)9.2 mphClear
7:15 AM26.6 °F12.2 °F55 %30.02 in10.0 miSSW (200°)9.2 mphClear
7:35 AM26.6 °F12.2 °F55 %30.03 in10.0 miSSW (200°)5.8 mphClear
7:55 AM30.2 °F12.2 °F47 %30.03 in10.0 miSSW (200°)8.1 mphClear
8:15 AM32.0 °F14.0 °F48 %30.04 in10.0 miSSW (200°)8.1 mphClear
8:35 AM35.6 °F14.0 °F41 %30.05 in10.0 miSSW (200°)6.9 mphClear
8:55 AM39.2 °F14.0 °F36 %30.05 in10.0 miSouth (190°)4.6 mphClear
9:15 AM41.0 °F12.2 °F31 %30.06 in10.0 miSouth (180°)4.6 mphClear
9:35 AM42.8 °F14.0 °F31 %30.06 in10.0 miSSE (150°)5.8 mphClear
9:55 AM42.8 °F12.2 °F29 %30.05 in10.0 miSE (140°)5.8 mphClear
10:15 AM44.6 °F10.4 °F25 %30.05 in10.0 miSSE (150°)4.6 mphClear
10:35 AM46.4 °F10.4 °F23 %30.05 in10.0 miSE (140°)10.4 mphClear
10:55 AM46.4 °F10.4 °F23 %30.05 in10.0 miSSE (160°)6.9 mphClear
11:15 AM46.4 °F10.4 °F23 %30.03 in10.0 miSSE (160°)11.5 mphClear
11:35 AM46.4 °F10.4 °F23 %30.02 in10.0 miSSE (150°)15.0 mphClear
11:55 AM50.0 °F12.2 °F22 %30.02 in10.0 miSouth (190°)11.5 mph18.4 mphClear
12:15 PM50.0 °F10.4 °F20 %30.01 in10.0 miSouth (170°)9.2 mphClear
12:35 PM51.8 °F10.4 °F19 %30.00 in10.0 miSouth (190°)11.5 mphClear
12:55 PM50.0 °F8.6 °F19 %29.99 in10.0 miSouth (190°)8.1 mphClear
1:15 PM51.8 °F10.4 °F19 %29.99 in10.0 miSouth (180°)9.2 mphClear
1:34 PM51.8 °F12.2 °F21 %29.97 in10.0 miSSE (150°)11.5 mphClear
1:55 PM50.0 °F10.4 °F20 %29.96 in10.0 miSSE (150°)15.0 mph20.7 mphClear
2:15 PM50.0 °F10.4 °F20 %29.95 in10.0 miSSE (150°)13.8 mph20.7 mphClear
2:35 PM48.2 °F12.2 °F24 %29.95 in10.0 miSSE (150°)15.0 mphClear
2:55 PM48.2 °F12.2 °F24 %29.95 in10.0 miSouth (170°)16.1 mphClear
3:15 PM46.4 °F12.2 °F25 %29.95 in10.0 miSouth (180°)16.1 mphClear
3:35 PM46.4 °F12.2 °F25 %29.95 in10.0 miSouth (180°)19.6 mph25.3 mphClear
3:55 PM44.6 °F12.2 °F27 %29.95 in10.0 miSouth (180°)18.4 mph24.2 mphClear
4:15 PM44.6 °F12.2 °F27 %29.95 in10.0 miSouth (190°)19.6 mphClear
4:35 PM42.8 °F12.2 °F29 %29.95 in10.0 miSouth (180°)17.3 mphClear
4:55 PM42.8 °F10.4 °F27 %29.95 in10.0 miSouth (190°)18.4 mph24.2 mphClear
5:15 PM39.2 °F12.2 °F33 %29.95 in10.0 miSouth (180°)12.7 mphClear
5:35 PM37.4 °F10.4 °F33 %29.95 in10.0 miSouth (170°)11.5 mph17.3 mphClear
5:54 PM35.6 °F10.4 °F35 %29.95 in10.0 miSSE (160°)9.2 mphClear
6:14 PM35.6 °F12.2 °F38 %29.95 in10.0 miSouth (170°)12.7 mphClear
6:34 PM35.6 °F12.2 °F38 %29.95 in10.0 miSouth (170°)13.8 mphClear
6:54 PM35.6 °F12.2 °F38 %29.94 in10.0 miSouth (180°)16.1 mphClear
7:15 PM35.6 °F12.2 °F38 %29.94 in10.0 miSouth (180°)18.4 mph21.9 mphClear
7:35 PM35.6 °F12.2 °F38 %29.94 in10.0 miSouth (180°)18.4 mph25.3 mphClear
7:55 PM35.6 °F14.0 °F41 %29.94 in10.0 miSouth (170°)20.7 mphClear
8:15 PM35.6 °F14.0 °F41 %29.94 in10.0 miSouth (180°)21.9 mphClear
8:35 PM35.6 °F14.0 °F41 %29.93 in10.0 miSouth (180°)19.6 mphClear
8:55 PM33.8 °F14.0 °F44 %29.93 in10.0 miSouth (180°)17.3 mphClear
9:15 PM33.8 °F14.0 °F44 %29.93 in10.0 miSouth (180°)16.1 mphClear
9:35 PM33.8 °F15.8 °F48 %29.92 in10.0 miSouth (180°)17.3 mphClear
9:55 PM33.8 °F14.0 °F44 %29.92 in10.0 miSouth (180°)18.4 mphClear
10:14 PM33.8 °F15.8 °F48 %29.91 in10.0 miSouth (180°)16.1 mphClear
10:35 PM33.8 °F15.8 °F48 %29.91 in10.0 miSouth (180°)17.3 mphClear
10:54 PM33.8 °F15.8 °F48 %29.90 in10.0 miSouth (170°)13.8 mphClear
11:15 PM33.8 °F15.8 °F48 %29.90 in10.0 miSouth (170°)11.5 mphClear
11:35 PM33.8 °F15.8 °F48 %29.89 in10.0 miSouth (180°)9.2 mphClear
Hourly data recorded from KMNH, located miles away from Castle Rock, Colorado







STORIES FROM OUR PARTNERS